Location: Asheville, NC
(35.6000°N, 82.5500°W)
Time: 10:25:31

FO-29 - Pass Details

Date: 18 March 2018
Orbit: 800 x 1321 km, 98.5° (Epoch: 18 March)

Event Time Altitude Azimuth Distance (km) Brightness Sun altitude
Rises 22:42:37 0° 358° (N) 4,118 13.1 -36.3°
Reaches altitude 10° 22:45:46 10° 345° (NNW) 3,216 12.6 -36.9°
Maximum altitude 22:51:22 24° 296° (WNW) 2,414 12.0 -37.8°
Drops below altitude 10° 22:57:11 10° 248° (WSW) 3,339 12.6 -38.8°
Sets 23:00:33 0° 235° (SW) 4,311 13.1 -39.4°
